カタログに戻る

FENGYUN 1C DEB

運用中LEO
NORAD 31629·DEBRIS·🇨🇳 China

打ち上げ May 10, 1999 から Taiyuan Satellite Launch Center

Loading…

次のパス (今後24時間)

TLE

最新Source: Space-Track

元期: Sep 14, 2026, 04:56 UTC

1 31629U 99025CAK 26257.20559328  .00002736  00000-0  13237-2 0  9998
2 31629 102.1339  46.6475 0102046  53.9931 307.0639 14.17137693983456

AllMySatでFENGYUN 1C DEBをリアルタイム追跡

Download on the App Store